Location: Tauranga
(37.6860°S, 176.1670°E)
Time: 09:40:11
(UTC+13:00)

Cosmos 2208 Rocket - Pass Details

Date: 24 January 2019
Orbit: 755 x 805 km, 74.0° (Epoch: 21 October)

Event Time Altitude Azimuth Distance (km) Brightness Sun altitude
Rises 21:59:58 0° 201° (SSW) 3,249 8.4 -15.1°
Reaches altitude 10° 22:02:21 10° 203° (SSW) 2,320 7.5 -15.4°
Maximum altitude 22:07:35 71° 285° (WNW) 819 4.2 -16.2°
Enters shadow 22:11:28 18° 6° (N) 1,803 5.5 -16.8°
